Location: A�t �Alizem
(31.2076°N, 8.7872°W)
Time: 10:50:19
(UTC+00:00)

Envisat - Visible Passes

Search period start: 28 September 2021 00:00
Search period end: 08 October 2021 00:00
Orbit: 764 x 766 km, 98.2° (Epoch: 28 September)

Date Brightness Start Highest point End Pass type
(mag) Time Alt. Az. Time Alt. Az. Time Alt. Az.
28 Sep 3.3 05:31:15 10° NNE 05:36:20 71° ESE 05:41:22 10° S visible
29 Sep 5.1 04:55:03 10° NE 04:59:24 28° E 05:03:43 10° SSE visible
30 Sep 6.2 04:20:58 10° ENE 04:22:18 11° E 04:23:37 10° ESE visible
30 Sep 3.0 05:56:36 10° N 06:01:37 62° WNW 06:06:36 10° SSW visible
01 Oct 3.8 05:19:50 10° NNE 05:24:48 53° E 05:29:44 10° S visible
02 Oct 5.5 04:43:58 10° NE 04:47:50 22° E 04:51:39 10° SE visible
03 Oct 3.0 05:45:03 10° N 05:50:07 81° WNW 05:55:12 10° SSW visible
04 Oct 4.4 05:08:30 10° NNE 05:13:16 40° E 05:18:00 10° SSE visible
05 Oct 5.9 04:33:06 10° NE 04:36:14 16° E 04:39:21 10° SE visible
06 Oct 3.2 05:33:32 10° NNE 05:38:37 77° ESE 05:43:41 10° S visible
07 Oct 4.9 04:57:15 10° NE 05:01:43 31° E 05:06:09 10° SSE visible
